Regional Weather Roundup
Issued by NWS State College, PA

Home | Current Version | Previous Version | Text Only | Print | Product List | Glossary Off
Versions: 1 2 3 4 5 6 7 8 9 10 11 12 13 14 15 16 17 18 19 20 21 22 23 24 25 26 27 28 29 30 31 32 33 34 35 36 37 38 39 40 41 42 43 44 45 46 47 48 49 50

000
ASUS41 KCTP 220910
RWRCTP

REGIONAL WEATHER ROUNDUP
NATIONAL WEATHER SERVICE STATE COLLEGE PA
500 AM EDT SAT JUL 22 2017

Note: "fair" indicates few or no clouds below 12,000 feet with no
significant weather and/or obstructions to visibility.

* = STATION THAT DOES NOT REPORT PRECIPITATION /E.G. RAIN...SNOW...ETC/
    THUNDER OR FOG.

PAZ002>004-007>009-013>016-020>023-029>032-221000-
WESTERN PENNSYLVANIA

CITY           SKY/WX    TMP DP  RH WIND       PRES   REMARKS
ERIE           CLOUDY    68  63  84 S9        29.91F
MEADVILLE      CLOUDY    67  64  90 CALM      29.95F
FRANKLIN*      CLOUDY    64  61  88 CALM      29.97S
NEW CASTLE     FAIR      68  68 100 CALM      29.95S
BEAVER COUNTY  NOT AVBL
BUTLER*        MOCLDY    70  66  88 CALM      29.96S
PITTSBURGH INT CLOUDY    74  72  93 S5        29.95S FOG
PITTSBURGH     CLOUDY    73  70  90 S6        29.96R FOG
INDIANA*       CLOUDY    72  72 100 W6        30.00R FOG
LATROBE        CLOUDY    73  73 100 SW6       29.97S
WASHINGTON CO* CLOUDY    72  70  94 S3        29.96S
$$

PAZ004>006-010>012-017>019-024>028-033>037-041-042-045-046-049>053-221000-
CENTRAL PENNSYLVANIA

CITY           SKY/WX    TMP DP  RH WIND       PRES   REMARKS
BRADFORD       PTCLDY    60  59  96 CALM      29.99R
DUBOIS         FOG       68  66  93 CALM      29.97S VSB<1/4
CLEARFIELD     CLOUDY    65  65 100 CALM      29.98R FOG
JOHNSTOWN      CLOUDY    70  69  97 W3        30.00S FOG
ALTOONA        CLOUDY    71  71 100 S3        29.97S FOG
STATE COLLEGE  CLOUDY    67  65  92 CALM      29.95R
WILLIAMSPORT   PTCLDY    68  66  93 CALM      29.89F
SELINSGROVE    CLEAR     68  68 100 CALM      29.91R FOG
FT INDIANTOWN  CLOUDY    71  67  89 CALM      29.89R
CAPITAL CITY   CLEAR     74  70  87 W5        29.89R
HARRISBURG     PTCLDY    75  73  93 NW6       29.88R
YORK           CLEAR     68  68 100 W3        29.90R FOG
$$

PAZ038>040-043-044-047-048-054-055-060>062-067>071-221000-
EASTERN PENNSYLVANIA

CITY           SKY/WX    TMP DP  RH WIND       PRES   REMARKS
SCRANTON       CLEAR     69  67  93 E6        29.91F
MOUNT POCONO   CLEAR     63  63 100 VRB3      29.95F
ALLENTOWN      CLEAR     74  68  81 E3        29.88F
QUAKERTOWN*    SUNNY     72  70  94 CALM      29.90S
READING        CLEAR     73  73 100 CALM      29.87S
LANCASTER      CLEAR     75  74  96 W5        29.88S FOG
COATESVILLE    SUNNY     75  72  88 CALM      29.90S
POTTSTOWN      CLEAR     72  72 100 CALM      29.90S
BLUE BELL      CLEAR     68  68 100 CALM      29.89R
DOYLESTOWN     CLEAR     73  71  93 NE3       29.88S
WILLOW GROVE   NOT AVBL
NORTH PHILA    CLEAR     77  71  82 N6        29.87F
PHILADELPHIA   PTCLDY    81  73  76 NW5       29.86S
$$



USA.gov is the U.S. government's official web portal to all federal, state and local government web resources and services.